Starlink 11120

operational
NORAD ID: 60042 Int'l Des: 2024-112 Owner: SPXS Country: US Constellation: starlink
LEOCIRCULAR

About Starlink 11120

Description loading...

Live Position

Loading 3D Globe...

Upcoming Passes

Altitude History

Altitude vs Time

uPlot chart will show altitude changes over time

Two-Line Element Set

1 60042U 24112E 25354.12869469 -.00001088 00000-0 -41236-5 0 9996
2 60042 53.1587 298.5791 0001021 87.3096 272.8039 15.69711125 88488
Epoch: Dec 20, 2025 • Age: 6 hours

Current Status

Altitude 375.3 km
Velocity 7.68 km/s
Sub-Earth Point -44.55°S, 26.87°E
Launch Date Jun 8, 2024
Age 1.5 years
Type internet

Technical Details

Classification Payload
Mass 960.00 kg
Dry Mass 910.00 kg
Total Mass 960.00 kg
Length 0.30 m
Diameter 4.10 m
Span 29.00 m
Shape Box + pan
Manufacturer SPXS
Bus Type Starlink V2MD
Phase Status In Orbit
Owner/State SPXS/US

Large Constellations

Loading constellations...